ARP149 LIPZ-LIMJ

Flight info

Callsign ARP149
Flight time 0h 40m
Altitude 19000
Route CHI6L/04R CHI M859 LUMAV L12 LOMED/N0420F180 M730 KALMO
Aircraft C700/M-SBDGHM1RWXY/LB2

Departure

Time 2026-04-16 14:13
Airport Venice Marco Polo Airport (LIPZ)

Arrival

Time 2026-04-16 14:53
Airport Genoa Cristoforo Colombo Airport (LIMJ)
Time Latitude Longitude Altitude Speed Heading
2026-04-16 13:50 45.49900 12.33755 10 ft 0 kts 311°
2026-04-16 14:07 45.49895 12.33764 10 ft 3 kts 311°
2026-04-16 14:07 45.49882 12.33786 10 ft 3 kts 308°
2026-04-16 14:07 45.49875 12.33803 10 ft 3 kts 277°
2026-04-16 14:08 45.49880 12.33829 10 ft 3 kts 234°
2026-04-16 14:08 45.49883 12.33833 10 ft 0 kts 234°
2026-04-16 14:09 45.49851 12.33787 10 ft 9 kts 223°
2026-04-16 14:09 45.49794 12.33713 10 ft 10 kts 221°
2026-04-16 14:09 45.49770 12.33683 10 ft 11 kts 220°
2026-04-16 14:10 45.49718 12.33634 10 ft 12 kts 210°
2026-04-16 14:10 45.49625 12.33540 10 ft 19 kts 217°
2026-04-16 14:10 45.49523 12.33584 11 ft 15 kts 134°
2026-04-16 14:10 45.49503 12.33615 11 ft 0 kts 131°
2026-04-16 14:12 45.49466 12.33676 10 ft 17 kts 131°
2026-04-16 14:12 45.49451 12.33817 9 ft 18 kts 54°
2026-04-16 14:12 45.49503 12.33889 9 ft 8 kts 41°
2026-04-16 14:13 45.49746 12.34205 7 ft 103 kts 43°
2026-04-16 14:13 45.50529 12.35231 263 ft 186 kts 44°
2026-04-16 14:13 45.51541 12.36607 1068 ft 210 kts 46°
2026-04-16 14:13 45.52539 12.38164 2497 ft 222 kts 50°
2026-04-16 14:14 45.53284 12.40176 3830 ft 235 kts 71°
2026-04-16 14:14 45.53493 12.42456 4008 ft 230 kts 94°
2026-04-16 14:14 45.53252 12.44632 4006 ft 216 kts 99°
2026-04-16 14:14 45.53028 12.46740 4354 ft 217 kts 97°
2026-04-16 14:15 45.52710 12.48906 5834 ft 233 kts 111°
2026-04-16 14:15 45.51830 12.50939 7419 ft 247 kts 129°
2026-04-16 14:15 45.50474 12.52517 9073 ft 257 kts 149°
2026-04-16 14:15 45.48713 12.53376 10339 ft 285 kts 173°
2026-04-16 14:16 45.46647 12.53224 11531 ft 312 kts 189°
2026-04-16 14:16 45.44454 12.52661 13153 ft 322 kts 191°
2026-04-16 14:16 45.42239 12.52097 14762 ft 332 kts 191°
2026-04-16 14:16 45.39923 12.51553 16244 ft 341 kts 190°
2026-04-16 14:17 45.37544 12.51002 17700 ft 350 kts 190°
2026-04-16 14:17 45.35103 12.50418 18973 ft 363 kts 191°
2026-04-16 14:17 45.32575 12.49307 19225 ft 398 kts 206°
2026-04-16 14:17 45.30047 12.47288 19237 ft 423 kts 212°
2026-04-16 14:18 45.27538 12.45145 19237 ft 428 kts 212°
2026-04-16 14:18 45.24966 12.42985 19238 ft 431 kts 211°
2026-04-16 14:18 45.22374 12.40843 19238 ft 430 kts 211°
2026-04-16 14:18 45.19786 12.38688 19234 ft 430 kts 211°
2026-04-16 14:19 45.17212 12.36535 19237 ft 429 kts 211°
2026-04-16 14:19 45.14640 12.34396 19236 ft 428 kts 211°
2026-04-16 14:19 45.12061 12.32255 19234 ft 430 kts 211°
2026-04-16 14:19 45.09525 12.29987 19224 ft 431 kts 218°
2026-04-16 14:20 45.07341 12.27157 19219 ft 429 kts 227°
2026-04-16 14:20 45.05514 12.23824 19219 ft 425 kts 238°
2026-04-16 14:20 45.04071 12.20175 19216 ft 425 kts 243°
2026-04-16 14:20 45.02667 12.16488 19220 ft 428 kts 243°
2026-04-16 14:21 45.01243 12.12796 19225 ft 427 kts 243°
2026-04-16 14:21 44.99836 12.09116 19230 ft 425 kts 243°
2026-04-16 14:21 44.98429 12.05436 19232 ft 426 kts 243°
2026-04-16 14:21 44.97028 12.01792 19234 ft 427 kts 243°
2026-04-16 14:22 44.95606 11.98097 19238 ft 428 kts 243°
2026-04-16 14:22 44.94187 11.94412 19239 ft 426 kts 243°
2026-04-16 14:22 44.92766 11.90732 19236 ft 425 kts 243°
2026-04-16 14:22 44.91352 11.87064 19237 ft 426 kts 243°
2026-04-16 14:23 44.89921 11.83380 19242 ft 428 kts 242°
2026-04-16 14:23 44.88484 11.79690 19245 ft 428 kts 242°
2026-04-16 14:23 44.87054 11.76017 19246 ft 425 kts 243°
2026-04-16 14:23 44.85630 11.72355 19246 ft 426 kts 242°
2026-04-16 14:24 44.84198 11.68685 19249 ft 428 kts 243°
2026-04-16 14:24 44.82661 11.65092 19247 ft 428 kts 235°
2026-04-16 14:24 44.80695 11.61937 19246 ft 428 kts 225°
2026-04-16 14:24 44.78376 11.59303 19245 ft 430 kts 215°
2026-04-16 14:25 44.75775 11.57170 19251 ft 433 kts 210°
2026-04-16 14:25 44.73141 11.55112 19247 ft 433 kts 210°
2026-04-16 14:25 44.70555 11.53066 19244 ft 431 kts 210°
2026-04-16 14:25 44.67940 11.51014 19242 ft 430 kts 210°
2026-04-16 14:26 44.65316 11.48962 19238 ft 433 kts 210°
2026-04-16 14:26 44.62677 11.46891 19236 ft 433 kts 210°
2026-04-16 14:26 44.60047 11.44836 19228 ft 431 kts 210°
2026-04-16 14:26 44.57435 11.42794 19223 ft 430 kts 210°
2026-04-16 14:27 44.54815 11.40734 19223 ft 432 kts 210°
2026-04-16 14:27 44.52191 11.38672 19224 ft 433 kts 210°
2026-04-16 14:27 44.49555 11.36615 19224 ft 432 kts 210°
2026-04-16 14:27 44.46923 11.34559 19223 ft 431 kts 210°
2026-04-16 14:28 44.44311 11.32519 19219 ft 430 kts 210°
2026-04-16 14:28 44.41685 11.30473 19228 ft 433 kts 210°
2026-04-16 14:28 44.39052 11.28420 19234 ft 433 kts 210°
2026-04-16 14:28 44.36429 11.26378 19242 ft 431 kts 210°
2026-04-16 14:29 44.33806 11.24339 19234 ft 432 kts 210°
2026-04-16 14:29 44.31165 11.22290 19244 ft 434 kts 210°
2026-04-16 14:29 44.28522 11.20239 19255 ft 433 kts 210°
2026-04-16 14:29 44.25888 11.18194 19266 ft 433 kts 210°
2026-04-16 14:30 44.23260 11.16163 19273 ft 433 kts 210°
2026-04-16 14:30 44.20646 11.14141 19279 ft 433 kts 210°
2026-04-16 14:30 44.18003 11.12099 19280 ft 433 kts 210°
2026-04-16 14:30 44.15356 11.10058 19272 ft 433 kts 210°
2026-04-16 14:31 44.12800 11.07855 19257 ft 430 kts 218°
2026-04-16 14:31 44.10652 11.05197 18844 ft 400 kts 226°
2026-04-16 14:31 44.08917 11.02182 17476 ft 396 kts 237°
2026-04-16 14:31 44.07588 10.98942 16322 ft 387 kts 246°
2026-04-16 14:32 44.06652 10.95489 15228 ft 377 kts 254°
2026-04-16 14:32 44.06114 10.91959 14181 ft 369 kts 263°
2026-04-16 14:32 44.05963 10.88387 13038 ft 361 kts 271°
2026-04-16 14:32 44.06193 10.84937 12203 ft 356 kts 280°
2026-04-16 14:33 44.06775 10.81527 12176 ft 376 kts 287°
2026-04-16 14:33 44.07542 10.78049 12185 ft 375 kts 287°
2026-04-16 14:33 44.08281 10.74543 12187 ft 380 kts 287°
2026-04-16 14:33 44.09027 10.71009 12189 ft 380 kts 287°
2026-04-16 14:34 44.09786 10.67491 12191 ft 379 kts 287°
2026-04-16 14:34 44.10541 10.63965 12192 ft 381 kts 287°
2026-04-16 14:34 44.11290 10.60424 12183 ft 382 kts 287°
2026-04-16 14:34 44.12037 10.56900 12188 ft 380 kts 287°
2026-04-16 14:35 44.12778 10.53358 12183 ft 379 kts 287°
2026-04-16 14:35 44.13506 10.49833 12186 ft 379 kts 287°
2026-04-16 14:35 44.13994 10.47491 12177 ft 380 kts 287°
2026-04-16 14:35 44.14736 10.43952 12168 ft 381 kts 287°
2026-04-16 14:36 44.15457 10.40469 12152 ft 381 kts 287°
2026-04-16 14:36 44.16208 10.36846 12141 ft 380 kts 287°
2026-04-16 14:36 44.16941 10.33319 12130 ft 379 kts 287°
2026-04-16 14:36 44.17681 10.29787 12122 ft 381 kts 287°
2026-04-16 14:37 44.18430 10.26236 12114 ft 381 kts 287°
2026-04-16 14:37 44.19160 10.22729 12106 ft 380 kts 287°
2026-04-16 14:37 44.19892 10.19212 12098 ft 379 kts 287°
2026-04-16 14:37 44.20631 10.15674 12098 ft 381 kts 287°
2026-04-16 14:38 44.21366 10.12119 12093 ft 382 kts 287°
2026-04-16 14:38 44.22107 10.08560 12090 ft 381 kts 287°
2026-04-16 14:38 44.22839 10.05018 12089 ft 380 kts 287°
2026-04-16 14:38 44.23572 10.01479 12087 ft 379 kts 287°
2026-04-16 14:39 44.24300 9.97950 12085 ft 378 kts 287°
2026-04-16 14:39 44.24993 9.94574 11689 ft 350 kts 287°
2026-04-16 14:39 44.25664 9.91312 11099 ft 347 kts 287°
2026-04-16 14:39 44.26359 9.87954 11097 ft 371 kts 286°
2026-04-16 14:40 44.27056 9.84534 11099 ft 358 kts 286°
2026-04-16 14:40 44.27722 9.81277 11095 ft 336 kts 286°
2026-04-16 14:40 44.28337 9.78263 11089 ft 310 kts 286°
2026-04-16 14:40 44.28906 9.75471 11095 ft 291 kts 286°
2026-04-16 14:41 44.29456 9.72774 11091 ft 289 kts 287°
2026-04-16 14:41 44.30015 9.70042 11100 ft 295 kts 287°
2026-04-16 14:41 44.30481 9.67211 11093 ft 296 kts 275°
2026-04-16 14:41 44.30222 9.64377 11102 ft 296 kts 257°
2026-04-16 14:42 44.29670 9.61598 11104 ft 296 kts 254°
2026-04-16 14:42 44.29079 9.58847 11107 ft 296 kts 253°
2026-04-16 14:42 44.28473 9.56098 11108 ft 296 kts 253°
2026-04-16 14:42 44.27865 9.53351 11106 ft 296 kts 253°
2026-04-16 14:43 44.27252 9.50603 11065 ft 292 kts 253°
2026-04-16 14:43 44.26655 9.47935 10389 ft 293 kts 253°
2026-04-16 14:43 44.26070 9.45303 10301 ft 273 kts 253°
2026-04-16 14:43 44.25536 9.42881 10294 ft 247 kts 253°
2026-04-16 14:44 44.25046 9.40681 10061 ft 233 kts 253°
2026-04-16 14:44 44.24565 9.38512 9536 ft 234 kts 253°
2026-04-16 14:44 44.24085 9.36349 9050 ft 232 kts 253°
2026-04-16 14:44 44.23606 9.34201 8578 ft 231 kts 253°
2026-04-16 14:45 44.23130 9.32062 8108 ft 230 kts 253°
2026-04-16 14:45 44.22668 9.29991 7282 ft 226 kts 253°
2026-04-16 14:45 44.22221 9.27858 6834 ft 226 kts 259°
2026-04-16 14:45 44.22387 9.25732 6405 ft 222 kts 296°
2026-04-16 14:46 44.23375 9.24118 5967 ft 219 kts 321°
2026-04-16 14:46 44.24567 9.22808 5546 ft 217 kts 323°
2026-04-16 14:46 44.25756 9.21516 5131 ft 216 kts 323°
2026-04-16 14:46 44.26944 9.20238 4719 ft 215 kts 323°
2026-04-16 14:47 44.28119 9.18978 4497 ft 206 kts 323°
2026-04-16 14:47 44.29248 9.17774 4260 ft 203 kts 323°
2026-04-16 14:47 44.30372 9.16588 3963 ft 199 kts 323°
2026-04-16 14:47 44.31437 9.15468 3859 ft 188 kts 323°
2026-04-16 14:48 44.32489 9.14369 3545 ft 190 kts 323°
2026-04-16 14:48 44.33513 9.13311 3503 ft 173 kts 323°
2026-04-16 14:48 44.34479 9.12211 3502 ft 186 kts 317°
2026-04-16 14:48 44.35337 9.10929 3498 ft 174 kts 307°
2026-04-16 14:49 44.35928 9.09507 3484 ft 166 kts 302°
2026-04-16 14:49 44.36416 9.08062 3492 ft 165 kts 288°
2026-04-16 14:49 44.36751 9.06521 3491 ft 166 kts 289°
2026-04-16 14:49 44.37092 9.05002 3478 ft 166 kts 287°
2026-04-16 14:50 44.37359 9.03460 3235 ft 163 kts 284°
2026-04-16 14:50 44.37626 9.01876 2861 ft 165 kts 284°
2026-04-16 14:50 44.37886 9.00327 2558 ft 162 kts 284°
2026-04-16 14:50 44.38167 8.98805 2255 ft 162 kts 287°
2026-04-16 14:51 44.38461 8.97328 1975 ft 145 kts 286°
2026-04-16 14:51 44.38727 8.96006 1605 ft 138 kts 286°
2026-04-16 14:51 44.39000 8.94735 1236 ft 134 kts 288°
2026-04-16 14:51 44.39277 8.93531 994 ft 128 kts 286°
2026-04-16 14:53 44.40928 8.85557 37 ft 108 kts 283°
2026-04-16 14:53 44.41057 8.84843 13 ft 33 kts 283°
2026-04-16 14:54 44.41117 8.84535 15 ft 19 kts 284°
2026-04-16 14:54 44.41159 8.84324 17 ft 25 kts 291°
2026-04-16 14:54 44.41224 8.84257 15 ft 13 kts 31°
2026-04-16 14:54 44.41250 8.84293 15 ft 0 kts 48°
2026-04-16 14:55 44.41250 8.84294 15 ft 1 kts 48°
2026-04-16 14:55 44.41282 8.84348 14 ft 11 kts 52°
2026-04-16 14:55 44.41335 8.84442 14 ft 14 kts 51°
2026-04-16 14:56 44.41407 8.84570 14 ft 19 kts 52°
2026-04-16 14:56 44.41486 8.84717 14 ft 13 kts 53°
2026-04-16 14:56 44.41552 8.84836 14 ft 16 kts 53°
2026-04-16 14:56 44.41622 8.84952 14 ft 15 kts 50°
2026-04-16 14:57 44.41701 8.85069 14 ft 9 kts 47°
2026-04-16 14:57 44.41706 8.85157 14 ft 0 kts 105°